This demonstration page uses our WeatherBlox Daily Observations layout. Learn more.

Hourly Observations for January 28, 2019

Temp ( °F °C ) Dew Point ( °F °C ) Humidity (%) Winds ( mph kmh ) Pressure ( in mb ) Visibility ( mi km ) Precip ( " mm )
12:15 am 00:15 Clear 36 2 19 -7 52 52 NNE 5 7 30.09 1019 10 16.09344 0 0
12:30 am 00:30 Clear 36 2 19 -7 52 52 NE 3 6 30.09 1019 10 16.09344 0 0
12:55 am 00:55 Clear 34 1 19 -7 56 56 NNE 5 7 30.09 1019 10 16.09344 0 0
1:15 am 01:15 Clear 34 1 19 -7 56 56 N 6 9 30.09 1019 10 16.09344 0 0
1:35 am 01:35 Clear 34 1 19 -7 56 56 NNE 6 9 30.09 1019 10 16.09344 0 0
1:55 am 01:55 Clear 32 0 19 -7 60 60 N 9 15 30.09 1019 10 16.09344 0 0
2:15 am 02:15 Clear 32 0 19 -7 60 60 NNE 5 7 30.09 1019 10 16.09344 0 0
2:35 am 02:35 Clear 32 0 19 -7 60 60 NNE 3 6 30.09 1019 10 16.09344 0 0
2:55 am 02:55 Clear 32 0 19 -7 60 60 Calm 30.12 1020 10 16.09344 0 0
3:15 am 03:15 Clear 32 0 19 -7 60 60 NNE 3 6 30.12 1020 10 16.09344 0 0
3:35 am 03:35 Clear 32 0 19 -7 60 60 N 8 13 30.09 1019 10 16.09344 0 0
3:55 am 03:55 Clear 32 0 18 -8 55 55 NNE 5 7 30.09 1019 10 16.09344 0 0
4:15 am 04:15 Clear 32 0 18 -8 55 55 N 7 11 30.09 1019 10 16.09344 0 0
4:35 am 04:35 Clear 32 0 14 -10 47 47 NNE 7 11 30.09 1019 10 16.09344 0 0
4:55 am 04:55 Clear 30 -1 12 -11 47 47 N 8 13 30.09 1019 10 16.09344 0 0
5:15 am 05:15 Clear 30 -1 10 -12 43 43 NNE 10 17 30.09 1019 10 16.09344 0 0
5:35 am 05:35 Clear 30 -1 10 -12 43 43 N 8 13 30.06 1018 10 16.09344 0 0
5:55 am 05:55 Clear 30 -1 10 -12 43 43 NNE 6 9 30.09 1019 10 16.09344 0 0
6:15 am 06:15 Clear 30 -1 12 -11 47 47 NNE 7 11 30.09 1019 10 16.09344 0 0
6:35 am 06:35 Clear 30 -1 10 -12 43 43 N 5 7 30.09 1019 10 16.09344 0 0
6:55 am 06:55 Clear 30 -1 10 -12 43 43 N 8 13 30.09 1019 10 16.09344 0 0
7:15 am 07:15 Clear 30 -1 10 -12 43 43 NNE 6 9 30.09 1019 10 16.09344 0 0
7:35 am 07:35 Sunny 28 -2 12 -11 51 51 NNE 7 11 30.12 1020 10 16.09344 0 0
7:55 am 07:55 Sunny 28 -2 14 -10 55 55 NNE 8 13 30.12 1020 10 16.09344 0 0
8:15 am 08:15 Sunny 28 -2 14 -10 55 55 NE 8 13 30.15 1021 10 16.09344 0 0
8:35 am 08:35 Sunny 28 -2 16 -9 59 59 NNE 8 13 30.12 1020 10 16.09344 0 0
8:55 am 08:55 Sunny 28 -2 16 -9 59 59 NE 7 11 30.15 1021 10 16.09344 0 0
9:15 am 09:15 Sunny 28 -2 16 -9 59 59 NE 6 9 30.15 1021 10 16.09344 0 0
9:35 am 09:35 Sunny 30 -1 14 -10 51 51 NE 6 9 30.15 1021 10 16.09344 0 0
9:55 am 09:55 Sunny 32 0 18 -8 55 55 E 8 13 30.18 1022 10 16.09344 0 0
10:15 am 10:15 Sunny 30 -1 14 -10 51 51 NE 7 11 30.15 1021 10 16.09344 0 0
10:35 am 10:35 Sunny 32 0 14 -10 47 47 NE 7 11 30.18 1022 10 16.09344 0 0
10:55 am 10:55 Sunny 32 0 16 -9 51 51 NE 5 7 30.15 1021 10 16.09344 0 0
11:15 am 11:15 Sunny 32 0 14 -10 47 47 NE 7 11 30.15 1021 10 16.09344 0 0
11:35 am 11:35 Sunny 32 0 12 -11 44 44 NE 5 7 30.15 1021 10 16.09344 0 0
11:55 am 11:55 Sunny 32 0 14 -10 47 47 NE 6 9 30.12 1020 10 16.09344 0 0
12:15 pm 12:15 Sunny 34 1 12 -11 41 41 ENE 7 11 30.12 1020 10 16.09344 0 0
12:35 pm 12:35 Sunny 34 1 12 -11 41 41 NE 6 9 30.09 1019 10 16.09344 0 0
12:55 pm 12:55 Sunny 34 1 10 -12 38 38 Calm 30.09 1019 10 16.09344 0 0
1:15 pm 13:15 Sunny 36 2 12 -11 38 38 E 5 7 30.09 1019 10 16.09344 0 0
1:35 pm 13:35 Sunny 36 2 14 -10 41 41 SE 6 9 30.09 1019 10 16.09344 0 0
1:55 pm 13:55 Sunny 36 2 14 -10 41 41 ENE 3 6 30.06 1018 10 16.09344 0 0
2:15 pm 14:15 Sunny 36 2 12 -11 38 38 Calm 30.06 1018 10 16.09344 0 0
2:35 pm 14:35 Sunny 36 2 12 -11 38 38 Calm 30.06 1018 10 16.09344 0 0
2:55 pm 14:55 Sunny 36 2 14 -10 41 41 E 6 9 30.06 1018 10 16.09344 0 0
3:15 pm 15:15 Sunny 36 2 14 -10 41 41 ENE 5 7 30.03 1017 10 16.09344 0 0
3:35 pm 15:35 Sunny 36 2 14 -10 41 41 E 7 11 30.03 1017 10 16.09344 0 0
3:55 pm 15:55 Sunny 36 2 14 -10 41 41 ESE 5 7 30.03 1017 10 16.09344 0 0
4:15 pm 16:15 Sunny 36 2 14 -10 41 41 E 3 6 30.03 1017 10 16.09344 0 0
4:35 pm 16:35 Sunny 36 2 14 -10 41 41 SE 3 6 30.03 1017 10 16.09344 0 0
4:55 pm 16:55 Sunny 36 2 14 -10 41 41 ESE 3 6 30.03 1017 10 16.09344 0 0
5:15 pm 17:15 Sunny 36 2 14 -10 41 41 E 3 6 30.03 1017 10 16.09344 0 0
5:35 pm 17:35 Clear 36 2 14 -10 41 41 Calm 30.03 1017 10 16.09344 0 0
5:55 pm 17:55 Clear 36 2 14 -10 41 41 SSE 7 11 30.03 1017 10 16.09344 0 0
6:15 pm 18:15 Clear 36 2 14 -10 41 41 SSE 3 6 30.03 1017 10 16.09344 0 0
6:35 pm 18:35 Clear 34 1 14 -10 44 44 SE 3 6 30.03 1017 10 16.09344 0 0
6:55 pm 18:55 Clear 34 1 14 -10 44 44 SE 7 11 30.03 1017 10 16.09344 0 0
7:15 pm 19:15 Clear 34 1 14 -10 44 44 SE 6 9 30.03 1017 10 16.09344 0 0
7:35 pm 19:35 Clear 34 1 16 -9 48 48 SE 5 7 30.03 1017 10 16.09344 0 0
7:55 pm 19:55 Clear 32 0 14 -10 47 47 SE 6 9 30.03 1017 10 16.09344 0 0
8:15 pm 20:15 Clear 32 0 14 -10 47 47 SE 6 9 30.03 1017 10 16.09344 0 0
8:35 pm 20:35 Clear 32 0 14 -10 47 47 SE 6 9 30.03 1017 10 16.09344 0 0
8:55 pm 20:55 Clear 32 0 14 -10 47 47 SE 6 9 30.03 1017 10 16.09344 0 0
9:15 pm 21:15 Clear 32 0 12 -11 44 44 SSE 7 11 30.03 1017 10 16.09344 0 0
9:35 pm 21:35 Clear 32 0 12 -11 44 44 SSE 5 7 30.03 1017 10 16.09344 0 0
9:55 pm 21:55 Clear 32 0 12 -11 44 44 SSE 7 11 30.03 1017 10 16.09344 0 0
10:15 pm 22:15 Clear 32 0 10 -12 40 40 SSE 5 7 30.03 1017 10 16.09344 0 0
10:35 pm 22:35 Clear 32 0 12 -11 44 44 SSE 7 11 30.03 1017 10 16.09344 0 0
10:55 pm 22:55 Clear 32 0 12 -11 44 44 SSE 5 7 30.03 1017 10 16.09344 0 0
11:15 pm 23:15 Clear 32 0 12 -11 44 44 SSE 5 7 30.03 1017 10 16.09344 0 0
11:35 pm 23:35 Clear 32 0 14 -10 47 47 S 3 6 30.03 1017 10 16.09344 0 0
11:55 pm 23:55 Mostly Cloudy 32 0 14 -10 47 47 S 7 11 30.03 1017 10 16.09344 0 0

Powered by AerisWeather